Home   Weather   Grand Rapids   Past weeks
Flag for USA

Past Weather in Grand Rapids, Michigan, USA — Yesterday and Last 2 Weeks

Now
32 °F

Overcast.


Feels Like: 19 °F
Forecast: 33 / 25 °F
Wind: 22 mph from West

Location: Kent County International Airport

Current Time: Feb 21, 2019 at 7:04:46 am

Latest Report: Feb 21, 2019 at 5:53 am


Visibility: 10 mi

Pressure: 29.97 "Hg

Humidity: 66%

Dew Point: 22 °F

Location of Grand RapidsLocation

Past Weather in Grand Rapids — Graph

°F

Grand Rapids Temperature Yesterday

Maximum temperature yesterday: 36 °F (at 8:53 pm)
Minimum temperature yesterday: 21 °F (at 12:53 am)
Average temperature yesterday: 30 °F

High & Low Weather Summary for the Past Weeks

 TemperatureHumidityPressure
High45 °F (Feb 7, 5:53 pm)100% (Feb 7, 4:53 pm)30.90 "Hg (Feb 7, 4:53 pm)
Low4 °F (Feb 19, 5:53 am)46% (Feb 18, 4:53 pm)29.41 "Hg (Feb 12, 4:17 pm)
Average24 °F80%30.04 "Hg
* Reported Feb 6 5:09 am — Feb 21 5:53 am, Grand Rapids. Weather by CustomWeather, © 2019

Note: Actual official high and low records may vary slightly from our data, if they occured in-between our weather recording intervals... More about our weather records

Advertising

Grand Rapids Weather History for the Previous 24 Hours

Scroll right to see more
 ConditionsComfort  
Time TempWeatherWind HumidityBarometerVisibility
5:53 am
Thu, Feb 21
32 °FOvercast.22 mph66%29.97 "Hg10 mi
4:53 am33 °FOvercast.22 mph66%29.93 "Hg10 mi
3:53 am34 °FOvercast.21 mph67%29.92 "Hg10 mi
2:53 am34 °FOvercast.23 mph73%29.90 "Hg10 mi
1:53 am35 °FMostly cloudy.22 mph88%29.87 "Hg10 mi
12:53 am35 °FMostly cloudy.20 mph92%29.84 "Hg10 mi
11:53 pm
Wed, Feb 20
35 °FMostly cloudy.20 mph92%29.82 "Hg10 mi
11:34 pm34 °FMostly cloudy.16 mph97%29.79 "Hg9 mi
11:12 pm34 °FOvercast.16 mph97%29.78 "Hg9 mi
10:53 pm34 °FLight rain. Fog.21 mph88%29.80 "Hg3 mi
9:53 pm36 °FMostly cloudy.22 mph85%29.77 "Hg10 mi
8:53 pm36 °FLow clouds.20 mph89%29.73 "Hg7 mi
8:20 pm35 °FDrizzle. Fog.13 mph92%29.70 "Hg3 mi
7:53 pm35 °FLight rain. Fog.10 mph92%29.72 "Hg2 mi
6:53 pm33 °FLight rain. Fog.8 mph96%29.72 "Hg3 mi
6:13 pm33 °FDrizzle. Fog.12 mph92%29.68 "Hg3 mi
5:53 pm33 °FLight rain. Fog.9 mph92%29.72 "Hg1 mi
5:33 pm33 °FLight rain. Fog.8 mph92%29.72 "Hg1 mi
5:09 pm33 °FDrizzle. Fog.10 mph92%29.70 "Hg2 mi
4:05 pm33 °FLight rain. Fog.17 mph88%29.73 "Hg1 mi
3:53 pm33 °FLight rain. Fog.14 mph88%29.76 "Hg3 mi
2:53 pm32 °FLow clouds.21 mph85%29.79 "Hg8 mi
2:27 pm32 °FLight freezing rain. Overcast.20 mph82%29.78 "Hg4 mi
1:53 pm32 °FOvercast.20 mph75%29.85 "Hg10 mi
12:53 pm31 °FMostly cloudy.22 mph76%29.90 "Hg10 mi
12:34 pm30 °FMostly cloudy.24 mph75%29.89 "Hg10 mi
11:53 am28 °FOvercast.20 mph72%29.98 "Hg7 mi
10:53 am26 °FOvercast.16 mph71%30.03 "Hg10 mi
9:53 am24 °FOvercast.18 mph71%30.09 "Hg10 mi
8:53 am23 °FMostly cloudy.17 mph72%30.16 "Hg10 mi
7:53 am23 °FOvercast.15 mph68%30.19 "Hg10 mi
Weather by CustomWeather, © 2019

See weather overview